Time,TemperatureF,DewpointF,PressureIn,WindDirection,WindDirectionDegrees,WindSpeedMPH,WindSpeedGustMPH,Humidity,HourlyPrecipIn,Conditions,Clouds,dailyrainin,SoftwareType,DateUTC
2013-10-31 00:00:00,45.7,39.6,30.09,East,90,0.0,0.0,79,0.00,,,0.00,WUHU216HW,2013-10-31 07:00:00,
2013-10-31 00:05:00,45.7,39.6,30.09,East,90,0.0,0.0,79,0.00,,,0.00,WUHU216HW,2013-10-31 07:05:00,
2013-10-31 01:00:00,44.1,38.6,30.09,East,90,0.0,0.0,81,0.00,,,0.00,WUHU216HW,2013-10-31 08:00:00,
2013-10-31 01:05:00,43.9,38.4,30.09,East,90,0.0,0.0,81,0.00,,,0.00,WUHU216HW,2013-10-31 08:05:00,
2013-10-31 01:10:00,43.9,38.4,30.09,East,90,0.4,0.4,81,0.00,,,0.00,WUHU216HW,2013-10-31 08:10:00,
2013-10-31 01:15:00,43.7,38.3,30.09,East,90,0.2,0.7,81,0.00,,,0.00,WUHU216HW,2013-10-31 08:15:00,
2013-10-31 01:20:00,43.6,38.4,30.09,East,90,0.0,0.7,82,0.00,,,0.00,WUHU216HW,2013-10-31 08:20:00,
2013-10-31 01:25:00,43.6,38.4,30.09,East,90,0.4,0.4,82,0.00,,,0.00,WUHU216HW,2013-10-31 08:25:00,
2013-10-31 01:30:00,43.4,38.3,30.09,East,90,0.0,0.4,82,0.00,,,0.00,WUHU216HW,2013-10-31 08:30:00,
2013-10-31 01:35:00,43.4,38.3,30.10,East,90,0.0,0.4,82,0.00,,,0.00,WUHU216HW,2013-10-31 08:35:00,
2013-10-31 01:40:00,43.2,38.1,30.09,East,90,0.0,0.0,82,0.00,,,0.00,WUHU216HW,2013-10-31 08:40:00,
2013-10-31 01:45:00,43.0,37.9,30.10,East,90,0.0,0.2,82,0.00,,,0.00,WUHU216HW,2013-10-31 08:45:00,
2013-10-31 01:50:00,43.0,37.9,30.10,East,90,0.0,0.2,82,0.00,,,0.00,WUHU216HW,2013-10-31 08:50:00,
2013-10-31 01:55:00,42.8,37.7,30.10,East,90,0.0,0.0,82,0.00,,,0.00,WUHU216HW,2013-10-31 08:55:00,
2013-10-31 02:00:00,42.8,38.0,30.10,East,90,0.0,0.0,83,0.00,,,0.00,WUHU216HW,2013-10-31 09:00:00,
2013-10-31 02:05:00,42.7,37.8,30.10,East,90,0.0,0.2,83,0.00,,,0.00,WUHU216HW,2013-10-31 09:05:00,
2013-10-31 02:10:00,42.7,37.8,30.10,East,90,0.0,0.4,83,0.00,,,0.00,WUHU216HW,2013-10-31 09:10:00,
2013-10-31 02:15:00,42.5,37.6,30.10,East,90,0.0,0.4,83,0.00,,,0.00,WUHU216HW,2013-10-31 09:15:00,
2013-10-31 02:20:00,42.3,37.4,30.10,East,90,0.0,0.0,83,0.00,,,0.00,WUHU216HW,2013-10-31 09:20:00,
2013-10-31 02:25:00,42.1,37.3,30.10,East,90,0.0,0.0,83,0.00,,,0.00,WUHU216HW,2013-10-31 09:25:00,
2013-10-31 02:30:00,42.1,37.3,30.10,East,90,0.0,0.0,83,0.00,,,0.00,WUHU216HW,2013-10-31 09:30:00,
2013-10-31 02:35:00,42.1,37.3,30.10,East,90,0.0,0.0,83,0.00,,,0.00,WUHU216HW,2013-10-31 09:35:00,
2013-10-31 02:40:00,42.1,37.6,30.10,East,90,0.0,0.0,84,0.00,,,0.00,WUHU216HW,2013-10-31 09:40:00,
2013-10-31 02:45:00,41.9,37.5,30.10,East,90,0.0,0.0,84,0.00,,,0.00,WUHU216HW,2013-10-31 09:45:00,
2013-10-31 02:50:00,41.8,37.3,30.10,East,90,0.0,0.0,84,0.00,,,0.00,WUHU216HW,2013-10-31 09:50:00,
2013-10-31 02:55:00,41.8,37.3,30.10,East,90,0.0,0.2,84,0.00,,,0.00,WUHU216HW,2013-10-31 09:55:00,
2013-10-31 03:00:00,41.8,37.3,30.10,East,90,0.0,0.2,84,0.00,,,0.00,WUHU216HW,2013-10-31 10:00:00,
2013-10-31 03:05:00,41.6,36.7,30.10,East,90,0.0,0.0,83,0.00,,,0.00,WUHU216HW,2013-10-31 10:05:00,
2013-10-31 03:10:00,41.6,36.7,30.10,East,90,0.0,0.4,83,0.00,,,0.00,WUHU216HW,2013-10-31 10:10:00,
2013-10-31 03:15:00,41.4,36.9,30.10,East,90,0.2,0.7,84,0.00,,,0.00,WUHU216HW,2013-10-31 10:15:00,
2013-10-31 03:20:00,41.4,36.9,30.10,East,90,0.0,0.7,84,0.00,,,0.00,WUHU216HW,2013-10-31 10:20:00,
2013-10-31 03:25:00,41.2,36.7,30.10,East,90,0.4,0.4,84,0.00,,,0.00,WUHU216HW,2013-10-31 10:25:00,
2013-10-31 03:30:00,41.2,36.7,30.10,East,90,0.2,0.4,84,0.00,,,0.00,WUHU216HW,2013-10-31 10:30:00,
2013-10-31 03:35:00,41.2,36.7,30.10,East,90,0.0,0.4,84,0.00,,,0.00,WUHU216HW,2013-10-31 10:35:00,
2013-10-31 03:40:00,41.0,36.6,30.10,East,90,0.0,0.4,84,0.00,,,0.00,WUHU216HW,2013-10-31 10:40:00,
2013-10-31 03:45:00,41.0,36.6,30.10,East,90,0.0,0.4,84,0.00,,,0.00,WUHU216HW,2013-10-31 10:45:00,
2013-10-31 03:50:00,41.0,36.6,30.10,East,90,0.0,0.0,84,0.00,,,0.00,WUHU216HW,2013-10-31 10:50:00,
2013-10-31 03:55:00,40.9,36.4,30.10,East,90,0.0,0.0,84,0.00,,,0.00,WUHU216HW,2013-10-31 10:55:00,
2013-10-31 04:00:00,40.7,36.2,30.10,East,90,0.4,0.4,84,0.00,,,0.00,WUHU216HW,2013-10-31 11:00:00,
2013-10-31 04:05:00,40.7,36.2,30.10,East,90,0.7,0.7,84,0.00,,,0.00,WUHU216HW,2013-10-31 11:05:00,
2013-10-31 04:10:00,40.7,36.2,30.10,East,90,0.4,0.9,84,0.00,,,0.00,WUHU216HW,2013-10-31 11:10:00,
2013-10-31 04:15:00,40.7,36.5,30.10,East,90,0.4,0.9,85,0.00,,,0.00,WUHU216HW,2013-10-31 11:15:00,
2013-10-31 04:20:00,40.5,36.3,30.10,ENE,68,0.4,0.7,85,0.00,,,0.00,WUHU216HW,2013-10-31 11:20:00,
2013-10-31 04:25:00,40.5,36.3,30.10,ENE,68,0.2,0.9,85,0.00,,,0.00,WUHU216HW,2013-10-31 11:25:00,
2013-10-31 04:30:00,40.5,36.3,30.10,ENE,68,0.0,0.9,85,0.00,,,0.00,WUHU216HW,2013-10-31 11:30:00,
2013-10-31 04:35:00,40.5,36.3,30.10,ENE,68,0.0,0.4,85,0.00,,,0.00,WUHU216HW,2013-10-31 11:35:00,
2013-10-31 04:40:00,40.3,36.1,30.10,ENE,68,0.0,0.0,85,0.00,,,0.00,WUHU216HW,2013-10-31 11:40:00,
2013-10-31 04:45:00,40.3,36.1,30.10,ENE,68,0.0,0.0,85,0.00,,,0.00,WUHU216HW,2013-10-31 11:45:00,
2013-10-31 04:50:00,40.1,35.9,30.10,ENE,68,0.0,0.0,85,0.00,,,0.00,WUHU216HW,2013-10-31 11:50:00,
2013-10-31 04:55:00,40.0,35.8,30.10,ENE,68,0.4,0.4,85,0.00,,,0.00,WUHU216HW,2013-10-31 11:55:00,
2013-10-31 05:00:00,40.0,35.8,30.10,ENE,68,0.0,0.4,85,0.00,,,0.00,WUHU216HW,2013-10-31 12:00:00,
2013-10-31 05:05:00,40.0,35.8,30.10,ENE,68,0.0,0.4,85,0.00,,,0.00,WUHU216HW,2013-10-31 12:05:00,
2013-10-31 05:10:00,40.0,35.8,30.10,ENE,68,0.0,0.4,85,0.00,,,0.00,WUHU216HW,2013-10-31 12:10:00,
2013-10-31 05:15:00,39.8,35.7,30.10,ENE,68,0.0,0.2,85,0.00,,,0.00,WUHU216HW,2013-10-31 12:15:00,
2013-10-31 05:20:00,39.8,35.7,30.10,ENE,68,0.0,0.0,85,0.00,,,0.00,WUHU216HW,2013-10-31 12:20:00,
2013-10-31 05:25:00,39.8,35.9,30.10,ENE,68,0.0,0.0,86,0.00,,,0.00,WUHU216HW,2013-10-31 12:25:00,
2013-10-31 05:30:00,39.6,35.7,30.11,ENE,68,0.0,0.0,86,0.00,,,0.00,WUHU216HW,2013-10-31 12:30:00,
2013-10-31 05:35:00,39.6,35.7,30.11,ENE,68,0.0,0.0,86,0.00,,,0.00,WUHU216HW,2013-10-31 12:35:00,
2013-10-31 05:40:00,39.6,35.7,30.11,ENE,68,0.0,0.0,86,0.00,,,0.00,WUHU216HW,2013-10-31 12:40:00,
2013-10-31 05:45:00,39.4,35.6,30.11,ENE,68,0.0,0.0,86,0.00,,,0.00,WUHU216HW,2013-10-31 12:45:00,
2013-10-31 05:50:00,39.4,35.6,30.11,ENE,68,0.4,0.4,86,0.00,,,0.00,WUHU216HW,2013-10-31 12:50:00,
2013-10-31 05:55:00,39.4,35.6,30.11,ENE,68,0.4,0.4,86,0.00,,,0.00,WUHU216HW,2013-10-31 12:55:00,
2013-10-31 06:00:00,39.4,35.6,30.12,ENE,68,0.4,0.7,86,0.00,,,0.00,WUHU216HW,2013-10-31 13:00:00,
2013-10-31 06:05:00,39.2,35.4,30.11,ENE,68,0.2,0.7,86,0.00,,,0.00,WUHU216HW,2013-10-31 13:05:00,
2013-10-31 06:10:00,39.2,35.4,30.12,ENE,68,0.0,0.7,86,0.00,,,0.00,WUHU216HW,2013-10-31 13:10:00,
2013-10-31 06:15:00,39.2,35.4,30.11,ENE,68,0.0,0.4,86,0.00,,,0.00,WUHU216HW,2013-10-31 13:15:00,
2013-10-31 06:20:00,39.2,35.4,30.12,ENE,68,0.0,0.0,86,0.00,,,0.00,WUHU216HW,2013-10-31 13:20:00,
2013-10-31 06:25:00,39.2,35.6,30.11,ENE,68,0.4,0.4,87,0.00,,,0.00,WUHU216HW,2013-10-31 13:25:00,
2013-10-31 06:30:00,39.2,35.6,30.11,ENE,68,0.2,0.7,87,0.00,,,0.00,WUHU216HW,2013-10-31 13:30:00,
2013-10-31 06:35:00,39.2,35.6,30.12,ENE,68,0.4,0.7,87,0.00,,,0.00,WUHU216HW,2013-10-31 13:35:00,
2013-10-31 06:40:00,39.2,35.6,30.12,ENE,68,0.0,0.4,87,0.00,,,0.00,WUHU216HW,2013-10-31 13:40:00,
2013-10-31 06:45:00,39.2,35.6,30.12,ENE,68,0.0,0.4,87,0.00,,,0.00,WUHU216HW,2013-10-31 13:45:00,
2013-10-31 06:50:00,39.1,35.5,30.12,ENE,68,0.0,0.0,87,0.00,,,0.00,WUHU216HW,2013-10-31 13:50:00,
2013-10-31 06:55:00,39.1,35.5,30.12,ENE,68,0.2,0.2,87,0.00,,,0.00,WUHU216HW,2013-10-31 13:55:00,
2013-10-31 07:00:00,38.9,35.3,30.12,ENE,68,0.4,0.4,87,0.00,,,0.00,WUHU216HW,2013-10-31 14:00:00,
2013-10-31 07:05:00,38.9,35.3,30.12,ENE,68,0.0,0.4,87,0.00,,,0.00,WUHU216HW,2013-10-31 14:05:00,
2013-10-31 07:10:00,38.9,35.3,30.11,ENE,68,0.0,0.4,87,0.00,,,0.00,WUHU216HW,2013-10-31 14:10:00,
2013-10-31 07:15:00,38.9,35.3,30.11,ENE,68,0.0,0.0,87,0.00,,,0.00,WUHU216HW,2013-10-31 14:15:00,
2013-10-31 07:20:00,38.7,35.1,30.11,ENE,68,0.0,0.0,87,0.00,,,0.00,WUHU216HW,2013-10-31 14:20:00,
2013-10-31 07:25:00,38.7,35.1,30.11,ENE,68,0.4,0.4,87,0.00,,,0.00,WUHU216HW,2013-10-31 14:25:00,
2013-10-31 07:30:00,38.7,35.1,30.11,ENE,68,0.4,0.4,87,0.00,,,0.00,WUHU216HW,2013-10-31 14:30:00,
2013-10-31 07:35:00,38.7,35.1,30.11,ENE,68,0.2,0.4,87,0.00,,,0.00,WUHU216HW,2013-10-31 14:35:00,
2013-10-31 07:40:00,38.5,34.9,30.12,ENE,68,0.4,0.4,87,0.00,,,0.00,WUHU216HW,2013-10-31 14:40:00,
2013-10-31 07:45:00,38.5,34.9,30.12,ENE,68,0.0,0.4,87,0.00,,,0.00,WUHU216HW,2013-10-31 14:45:00,
2013-10-31 07:50:00,38.5,34.9,30.13,ENE,68,0.2,0.4,87,0.00,,,0.00,WUHU216HW,2013-10-31 14:50:00,
2013-10-31 07:55:00,38.5,34.9,30.13,ENE,68,0.2,0.4,87,0.00,,,0.00,WUHU216HW,2013-10-31 14:55:00,
2013-10-31 08:00:00,38.7,35.5,30.14,ENE,68,0.4,0.4,88,0.00,,,0.00,WUHU216HW,2013-10-31 15:00:00,
2013-10-31 08:05:00,38.9,35.7,30.14,ENE,68,0.0,0.4,88,0.00,,,0.00,WUHU216HW,2013-10-31 15:05:00,
2013-10-31 08:10:00,38.9,35.7,30.13,ENE,68,0.0,0.4,88,0.00,,,0.00,WUHU216HW,2013-10-31 15:10:00,
2013-10-31 08:14:00,39.1,35.8,30.13,ENE,68,0.0,0.4,88,0.00,,,0.00,WUHU216HW,2013-10-31 15:14:00,
2013-10-31 08:19:00,39.2,36.0,30.13,ENE,68,0.0,0.0,88,0.00,,,0.00,WUHU216HW,2013-10-31 15:19:00,
2013-10-31 08:24:00,39.6,36.4,30.13,ENE,68,0.0,0.0,88,0.00,,,0.00,WUHU216HW,2013-10-31 15:24:00,
2013-10-31 08:29:00,39.6,36.6,30.14,ENE,68,0.0,0.0,89,0.00,,,0.00,WUHU216HW,2013-10-31 15:29:00,
2013-10-31 08:34:00,40.0,37.0,30.14,ENE,68,0.0,0.0,89,0.00,,,0.00,WUHU216HW,2013-10-31 15:34:00,
2013-10-31 08:39:00,40.3,37.4,30.14,ENE,68,0.0,0.0,89,0.00,,,0.00,WUHU216HW,2013-10-31 15:39:00,
2013-10-31 08:44:00,40.9,38.2,30.14,ENE,68,0.0,0.0,90,0.00,,,0.00,WUHU216HW,2013-10-31 15:44:00,
2013-10-31 08:49:00,41.4,38.7,30.15,ENE,68,0.0,0.0,90,0.00,,,0.00,WUHU216HW,2013-10-31 15:49:00,
2013-10-31 08:54:00,42.1,39.4,30.14,ENE,68,0.0,0.0,90,0.00,,,0.00,WUHU216HW,2013-10-31 15:54:00,
2013-10-31 08:59:00,42.8,40.1,30.14,SE,135,0.4,0.9,90,0.00,,,0.00,WUHU216HW,2013-10-31 15:59:00,
2013-10-31 09:04:00,43.6,40.9,30.14,SSW,203,0.9,1.1,90,0.00,,,0.00,WUHU216HW,2013-10-31 16:04:00,
2013-10-31 09:09:00,44.3,41.3,30.15,SSE,158,0.0,1.1,89,0.00,,,0.00,WUHU216HW,2013-10-31 16:09:00,
2013-10-31 09:14:00,44.8,42.1,30.15,SE,135,0.4,1.1,90,0.00,,,0.00,WUHU216HW,2013-10-31 16:14:00,
2013-10-31 09:19:00,45.5,42.6,30.15,ESE,113,0.9,1.1,89,0.00,,,0.00,WUHU216HW,2013-10-31 16:19:00,
2013-10-31 09:24:00,46.3,42.9,30.15,SSE,158,1.1,1.3,88,0.00,,,0.00,WUHU216HW,2013-10-31 16:24:00,
2013-10-31 09:29:00,47.2,43.2,30.15,South,180,1.1,1.8,86,0.00,,,0.00,WUHU216HW,2013-10-31 16:29:00,
2013-10-31 09:34:00,48.2,43.9,30.15,SE,135,0.7,1.8,85,0.00,,,0.00,WUHU216HW,2013-10-31 16:34:00,
2013-10-31 09:39:00,49.1,44.1,30.15,East,90,0.7,1.3,83,0.00,,,0.00,WUHU216HW,2013-10-31 16:39:00,
2013-10-31 09:44:00,50.0,45.0,30.15,SE,135,0.9,1.3,83,0.00,,,0.00,WUHU216HW,2013-10-31 16:44:00,
2013-10-31 09:49:00,51.3,46.0,30.15,South,180,1.3,1.3,82,0.00,,,0.00,WUHU216HW,2013-10-31 16:49:00,
2013-10-31 09:54:00,52.4,45.7,30.14,SW,225,0.2,1.6,78,0.00,,,0.00,WUHU216HW,2013-10-31 16:54:00,
2013-10-31 09:59:00,52.7,45.4,30.15,SE,135,0.0,1.6,76,0.00,,,0.00,WUHU216HW,2013-10-31 16:59:00,
2013-10-31 10:04:00,52.9,44.8,30.14,NE,45,0.0,1.6,74,0.00,,,0.00,WUHU216HW,2013-10-31 17:04:00,
2013-10-31 10:09:00,52.9,44.8,30.15,SE,135,2.0,2.0,74,0.00,,,0.00,WUHU216HW,2013-10-31 17:09:00,
2013-10-31 10:14:00,52.7,44.4,30.14,SE,135,2.0,2.0,73,0.00,,,0.00,WUHU216HW,2013-10-31 17:14:00,
2013-10-31 10:19:00,52.9,44.2,30.14,SSE,158,2.0,2.0,72,0.00,,,0.00,WUHU216HW,2013-10-31 17:19:00,
2013-10-31 10:24:00,53.1,44.6,30.14,SE,135,0.7,2.2,73,0.00,,,0.00,WUHU216HW,2013-10-31 17:24:00,
2013-10-31 10:29:00,53.6,45.5,30.14,SE,135,1.6,2.2,74,0.00,,,0.00,WUHU216HW,2013-10-31 17:29:00,
2013-10-31 10:34:00,54.0,45.9,30.14,South,180,0.9,1.8,74,0.00,,,0.00,WUHU216HW,2013-10-31 17:34:00,
2013-10-31 10:39:00,54.4,45.9,30.13,SE,135,1.8,1.8,73,0.00,,,0.00,WUHU216HW,2013-10-31 17:39:00,
2013-10-31 10:44:00,54.9,46.5,30.13,SSE,158,0.0,2.2,73,0.00,,,0.00,WUHU216HW,2013-10-31 17:44:00,
2013-10-31 10:49:00,55.3,46.1,30.13,SSE,158,1.1,2.2,71,0.00,,,0.00,WUHU216HW,2013-10-31 17:49:00,
2013-10-31 10:54:00,55.8,46.5,30.13,SSW,203,0.4,2.0,71,0.00,,,0.00,WUHU216HW,2013-10-31 17:54:00,
2013-10-31 10:59:00,56.5,46.4,30.13,ENE,68,0.9,2.5,69,0.00,,,0.00,WUHU216HW,2013-10-31 17:59:00,
2013-10-31 11:03:00,57.2,46.7,30.13,South,180,1.3,2.5,68,0.00,,,0.00,WUHU216HW,2013-10-31 18:03:00,
2013-10-31 11:05:00,57.2,46.7,30.13,SSW,203,1.3,2.5,68,0.00,,,0.00,WUHU216HW,2013-10-31 18:05:00,
2013-10-31 11:06:00,57.2,46.4,30.13,SE,135,1.6,2.5,67,0.00,,,0.00,WUHU216HW,2013-10-31 18:06:00,
2013-10-31 11:07:00,57.6,46.7,30.13,SE,135,1.6,1.8,67,0.00,,,0.00,WUHU216HW,2013-10-31 18:07:00,
2013-10-31 11:08:00,57.6,46.3,30.13,ESE,113,0.4,1.8,66,0.00,,,0.00,WUHU216HW,2013-10-31 18:08:00,
2013-10-31 11:09:00,57.6,46.7,30.13,ESE,113,0.2,1.8,67,0.00,,,0.00,WUHU216HW,2013-10-31 18:09:00,
2013-10-31 11:10:00,57.8,46.9,30.13,East,90,0.4,1.8,67,0.00,,,0.00,WUHU216HW,2013-10-31 18:10:00,
2013-10-31 11:11:00,58.0,46.6,30.13,South,180,0.4,1.8,66,0.00,,,0.00,WUHU216HW,2013-10-31 18:11:00,
2013-10-31 11:12:00,58.0,46.6,30.13,South,180,0.0,1.8,66,0.00,,,0.00,WUHU216HW,2013-10-31 18:12:00,
2013-10-31 11:13:00,58.1,47.3,30.13,SSW,203,1.8,1.8,67,0.00,,,0.00,WUHU216HW,2013-10-31 18:13:00,
2013-10-31 11:14:00,58.1,46.8,30.13,South,180,1.1,1.8,66,0.00,,,0.00,WUHU216HW,2013-10-31 18:14:00,
2013-10-31 11:15:00,58.3,46.5,30.13,East,90,0.4,1.8,65,0.00,,,0.00,WUHU216HW,2013-10-31 18:15:00,
2013-10-31 11:16:00,58.3,46.2,30.13,ENE,68,1.8,1.8,64,0.00,,,0.00,WUHU216HW,2013-10-31 18:16:00,
2013-10-31 11:17:00,58.7,46.9,30.13,East,90,1.1,2.7,65,0.00,,,0.00,WUHU216HW,2013-10-31 18:17:00,
2013-10-31 11:18:00,58.7,46.5,30.13,ENE,68,0.9,2.7,64,0.00,,,0.00,WUHU216HW,2013-10-31 18:18:00,
2013-10-31 11:19:00,58.9,47.1,30.13,East,90,1.1,2.7,65,0.00,,,0.00,WUHU216HW,2013-10-31 18:19:00,
2013-10-31 11:20:00,58.9,47.1,30.13,South,180,1.6,2.7,65,0.00,,,0.00,WUHU216HW,2013-10-31 18:20:00,
2013-10-31 11:21:00,59.0,46.8,30.12,SSE,158,1.8,2.7,64,0.00,,,0.00,WUHU216HW,2013-10-31 18:21:00,
2013-10-31 11:22:00,59.0,46.8,30.13,SSW,203,1.6,2.7,64,0.00,,,0.00,WUHU216HW,2013-10-31 18:22:00,
2013-10-31 11:23:00,59.0,46.8,30.13,South,180,1.6,2.7,64,0.00,,,0.00,WUHU216HW,2013-10-31 18:23:00,
2013-10-31 11:24:00,59.2,47.0,30.13,South,180,0.7,2.7,64,0.00,,,0.00,WUHU216HW,2013-10-31 18:24:00,
2013-10-31 11:25:00,59.4,47.2,30.12,SSW,203,0.0,2.7,64,0.00,,,0.00,WUHU216HW,2013-10-31 18:25:00,
2013-10-31 11:26:00,59.4,47.2,30.13,SSW,203,0.0,2.7,64,0.00,,,0.00,WUHU216HW,2013-10-31 18:26:00,
2013-10-31 11:27:00,59.6,47.3,30.12,ESE,113,0.9,2.2,64,0.00,,,0.00,WUHU216HW,2013-10-31 18:27:00,
2013-10-31 11:28:00,59.6,47.3,30.13,ESE,113,1.8,2.2,64,0.00,,,0.00,WUHU216HW,2013-10-31 18:28:00,
2013-10-31 11:29:00,59.8,47.5,30.12,SSE,158,1.3,2.2,64,0.00,,,0.00,WUHU216HW,2013-10-31 18:29:00,
2013-10-31 11:30:00,59.8,47.2,30.12,ESE,113,0.9,2.2,63,0.00,,,0.00,WUHU216HW,2013-10-31 18:30:00,
2013-10-31 11:31:00,59.9,47.4,30.13,East,90,1.1,2.2,63,0.00,,,0.00,WUHU216HW,2013-10-31 18:31:00,
2013-10-31 11:32:00,59.9,47.4,30.13,East,90,0.4,2.2,63,0.00,,,0.00,WUHU216HW,2013-10-31 18:32:00,
2013-10-31 11:33:00,60.1,47.1,30.12,SSW,203,2.5,2.5,62,0.00,,,0.00,WUHU216HW,2013-10-31 18:33:00,
2013-10-31 11:34:00,60.1,47.1,30.12,SSW,203,1.3,2.5,62,0.00,,,0.00,WUHU216HW,2013-10-31 18:34:00,
2013-10-31 11:35:00,60.3,47.7,30.12,SSW,203,1.1,2.5,63,0.00,,,0.00,WUHU216HW,2013-10-31 18:35:00,
2013-10-31 11:36:00,60.3,47.7,30.12,South,180,0.7,2.5,63,0.00,,,0.00,WUHU216HW,2013-10-31 18:36:00,
2013-10-31 11:37:00,60.5,47.9,30.12,SW,225,0.4,2.5,63,0.00,,,0.00,WUHU216HW,2013-10-31 18:37:00,
2013-10-31 11:38:00,60.5,47.9,30.12,SSW,203,0.7,2.5,63,0.00,,,0.00,WUHU216HW,2013-10-31 18:38:00,
2013-10-31 11:39:00,60.7,48.1,30.12,SE,135,1.8,2.5,63,0.00,,,0.00,WUHU216HW,2013-10-31 18:39:00,
2013-10-31 11:40:00,60.7,48.1,30.12,East,90,0.9,2.5,63,0.00,,,0.00,WUHU216HW,2013-10-31 18:40:00,
2013-10-31 11:41:00,60.8,48.3,30.12,ESE,113,0.7,2.5,63,0.00,,,0.00,WUHU216HW,2013-10-31 18:41:00,
2013-10-31 11:42:00,60.8,47.8,30.12,South,180,2.5,2.5,62,0.00,,,0.00,WUHU216HW,2013-10-31 18:42:00,
2013-10-31 11:43:00,61.0,47.5,30.12,South,180,1.8,3.6,61,0.00,,,0.00,WUHU216HW,2013-10-31 18:43:00,
2013-10-31 11:44:00,61.0,47.5,30.12,SSE,158,0.9,3.6,61,0.00,,,0.00,WUHU216HW,2013-10-31 18:44:00,
2013-10-31 11:45:00,61.2,47.7,30.12,SW,225,0.9,3.6,61,0.00,,,0.00,WUHU216HW,2013-10-31 18:45:00,
2013-10-31 11:46:00,61.4,48.3,30.12,South,180,0.2,3.6,62,0.00,,,0.00,WUHU216HW,2013-10-31 18:46:00,
2013-10-31 11:47:00,61.6,47.6,30.12,ESE,113,2.2,3.6,60,0.00,,,0.00,WUHU216HW,2013-10-31 18:47:00,
2013-10-31 11:48:00,61.6,47.6,30.12,South,180,1.3,3.6,60,0.00,,,0.00,WUHU216HW,2013-10-31 18:48:00,
2013-10-31 11:49:00,61.7,47.8,30.12,SSW,203,1.3,3.6,60,0.00,,,0.00,WUHU216HW,2013-10-31 18:49:00,
2013-10-31 11:50:00,61.7,47.8,30.12,SSW,203,0.7,3.6,60,0.00,,,0.00,WUHU216HW,2013-10-31 18:50:00,
2013-10-31 11:51:00,61.9,48.0,30.12,SSE,158,0.9,3.6,60,0.00,,,0.00,WUHU216HW,2013-10-31 18:51:00,
2013-10-31 11:52:00,62.1,48.2,30.12,SSW,203,2.9,3.6,60,0.00,,,0.00,WUHU216HW,2013-10-31 18:52:00,
2013-10-31 11:53:00,62.3,47.8,30.12,SSW,203,1.8,2.9,59,0.00,,,0.00,WUHU216HW,2013-10-31 18:53:00,
2013-10-31 11:54:00,62.3,47.8,30.12,SW,225,0.7,2.9,59,0.00,,,0.00,WUHU216HW,2013-10-31 18:54:00,
2013-10-31 11:55:00,62.5,48.0,30.12,WSW,248,0.4,2.9,59,0.00,,,0.00,WUHU216HW,2013-10-31 18:55:00,
2013-10-31 11:56:00,62.6,48.2,30.12,SW,225,0.7,2.9,59,0.00,,,0.00,WUHU216HW,2013-10-31 18:56:00,
2013-10-31 11:57:00,62.6,48.2,30.12,ESE,113,1.1,2.9,59,0.00,,,0.00,WUHU216HW,2013-10-31 18:57:00,
2013-10-31 11:58:00,62.8,47.8,30.11,South,180,1.8,2.9,58,0.00,,,0.00,WUHU216HW,2013-10-31 18:58:00,
2013-10-31 11:59:00,62.8,48.2,30.11,SSW,203,0.7,2.9,59,0.00,,,0.00,WUHU216HW,2013-10-31 18:59:00,
2013-10-31 12:00:00,63.0,48.0,30.11,SW,225,0.4,2.9,58,0.00,,,0.00,WUHU216HW,2013-10-31 19:00:00,
2013-10-31 12:01:00,63.0,48.4,30.11,SSW,203,0.9,2.9,59,0.00,,,0.00,WUHU216HW,2013-10-31 19:01:00,
2013-10-31 12:02:00,63.0,48.0,30.11,SSE,158,2.5,2.9,58,0.00,,,0.00,WUHU216HW,2013-10-31 19:02:00,
2013-10-31 12:03:00,63.2,48.2,30.11,ESE,113,0.7,2.5,58,0.00,,,0.00,WUHU216HW,2013-10-31 19:03:00,
2013-10-31 12:04:00,63.4,47.8,30.11,ESE,113,2.2,2.5,57,0.00,,,0.00,WUHU216HW,2013-10-31 19:04:00,
2013-10-31 12:05:00,63.4,47.8,30.11,East,90,2.0,2.5,57,0.00,,,0.00,WUHU216HW,2013-10-31 19:05:00,
2013-10-31 12:06:00,63.5,48.0,30.11,East,90,1.8,2.5,57,0.00,,,0.00,WUHU216HW,2013-10-31 19:06:00,
2013-10-31 12:07:00,63.7,47.6,30.11,ENE,68,2.2,2.5,56,0.00,,,0.00,WUHU216HW,2013-10-31 19:07:00,
2013-10-31 12:08:00,63.7,47.6,30.11,SSW,203,0.9,2.5,56,0.00,,,0.00,WUHU216HW,2013-10-31 19:08:00,
2013-10-31 12:09:00,63.7,47.2,30.11,SSW,203,0.9,2.5,55,0.00,,,0.00,WUHU216HW,2013-10-31 19:09:00,
2013-10-31 12:10:00,63.7,47.2,30.11,SSW,203,2.5,2.9,55,0.00,,,0.00,WUHU216HW,2013-10-31 19:10:00,
2013-10-31 12:11:00,63.9,46.8,30.11,SSW,203,1.1,3.1,54,0.00,,,0.00,WUHU216HW,2013-10-31 19:11:00,
2013-10-31 12:12:00,64.1,47.0,30.11,South,180,2.9,3.1,54,0.00,,,0.00,WUHU216HW,2013-10-31 19:12:00,
2013-10-31 12:13:00,64.1,46.5,30.11,SSW,203,2.9,3.1,53,0.00,,,0.00,WUHU216HW,2013-10-31 19:13:00,
2013-10-31 12:14:00,64.1,46.0,30.11,SW,225,0.4,3.1,52,0.00,,,0.00,WUHU216HW,2013-10-31 19:14:00,
2013-10-31 12:15:00,64.3,45.2,30.11,North,0,0.9,3.1,50,0.00,,,0.00,WUHU216HW,2013-10-31 19:15:00,
2013-10-31 12:16:00,64.4,45.8,30.11,SW,225,0.4,3.1,51,0.00,,,0.00,WUHU216HW,2013-10-31 19:16:00,
2013-10-31 12:17:00,64.4,45.8,30.11,South,180,0.4,3.1,51,0.00,,,0.00,WUHU216HW,2013-10-31 19:17:00,
2013-10-31 12:18:00,64.4,46.4,30.11,SE,135,1.1,3.1,52,0.00,,,0.00,WUHU216HW,2013-10-31 19:18:00,
2013-10-31 12:19:00,64.6,46.5,30.11,SE,135,0.7,3.1,52,0.00,,,0.00,WUHU216HW,2013-10-31 19:19:00,
2013-10-31 12:20:00,64.6,46.5,30.11,ESE,113,0.7,3.1,52,0.00,,,0.00,WUHU216HW,2013-10-31 19:20:00,
2013-10-31 12:21:00,64.8,46.2,30.10,ESE,113,0.7,2.9,51,0.00,,,0.00,WUHU216HW,2013-10-31 19:21:00,
2013-10-31 12:22:00,64.8,46.2,30.10,South,180,1.8,2.9,51,0.00,,,0.00,WUHU216HW,2013-10-31 19:22:00,
2013-10-31 12:23:00,64.8,45.7,30.11,East,90,1.8,2.9,50,0.00,,,0.00,WUHU216HW,2013-10-31 19:23:00,
2013-10-31 12:24:00,64.8,45.7,30.10,SW,225,1.8,2.0,50,0.00,,,0.00,WUHU216HW,2013-10-31 19:24:00,
2013-10-31 12:25:00,64.8,46.2,30.10,WNW,293,1.8,2.2,51,0.00,,,0.00,WUHU216HW,2013-10-31 19:25:00,
2013-10-31 12:26:00,65.0,46.9,30.10,West,270,2.0,2.2,52,0.00,,,0.00,WUHU216HW,2013-10-31 19:26:00,
2013-10-31 12:27:00,65.2,46.5,30.10,WNW,293,1.3,2.2,51,0.00,,,0.00,WUHU216HW,2013-10-31 19:27:00,
2013-10-31 12:28:00,65.2,46.5,30.10,West,270,0.4,2.2,51,0.00,,,0.00,WUHU216HW,2013-10-31 19:28:00,
2013-10-31 12:29:00,65.2,46.5,30.10,SSW,203,0.9,2.2,51,0.00,,,0.00,WUHU216HW,2013-10-31 19:29:00,
2013-10-31 12:30:00,65.2,46.1,30.10,SSW,203,1.1,2.2,50,0.00,,,0.00,WUHU216HW,2013-10-31 19:30:00,
2013-10-31 12:31:00,65.2,45.6,30.10,WSW,248,2.9,2.9,49,0.00,,,0.00,WUHU216HW,2013-10-31 19:31:00,
2013-10-31 12:32:00,65.5,45.8,30.10,SW,225,0.7,2.9,49,0.00,,,0.00,WUHU216HW,2013-10-31 19:32:00,
2013-10-31 12:33:00,65.5,45.8,30.10,WNW,293,2.5,2.9,49,0.00,,,0.00,WUHU216HW,2013-10-31 19:33:00,
2013-10-31 12:34:00,65.5,46.4,30.10,NW,315,3.1,3.1,50,0.00,,,0.00,WUHU216HW,2013-10-31 19:34:00,
2013-10-31 12:35:00,65.7,46.0,30.10,NW,315,0.4,3.1,49,0.00,,,0.00,WUHU216HW,2013-10-31 19:35:00,
2013-10-31 12:36:00,65.9,46.2,30.10,SW,225,0.2,3.1,49,0.00,,,0.00,WUHU216HW,2013-10-31 19:36:00,
2013-10-31 12:37:00,65.9,46.8,30.10,ESE,113,1.1,3.1,50,0.00,,,0.00,WUHU216HW,2013-10-31 19:37:00,
2013-10-31 12:38:00,66.1,47.0,30.10,ESE,113,1.6,3.1,50,0.00,,,0.00,WUHU216HW,2013-10-31 19:38:00,
2013-10-31 12:39:00,66.1,47.0,30.10,East,90,1.1,3.1,50,0.00,,,0.00,WUHU216HW,2013-10-31 19:39:00,
2013-10-31 12:40:00,66.1,47.0,30.10,East,90,0.9,3.1,50,0.00,,,0.00,WUHU216HW,2013-10-31 19:40:00,
2013-10-31 12:41:00,66.1,47.0,30.10,East,90,0.0,3.1,50,0.00,,,0.00,WUHU216HW,2013-10-31 19:41:00,
2013-10-31 12:46:00,66.2,46.5,30.10,SSW,203,1.8,2.2,49,0.00,,,0.00,WUHU216HW,2013-10-31 19:46:00,
2013-10-31 12:51:00,66.6,46.3,30.10,North,0,2.0,2.2,48,0.00,,,0.00,WUHU216HW,2013-10-31 19:51:00,
2013-10-31 12:53:00,66.8,46.4,30.10,ESE,113,1.1,2.2,48,0.00,,,0.00,WUHU216HW,2013-10-31 19:53:00,
2013-10-31 12:58:00,67.0,46.0,30.10,NW,315,0.4,3.4,47,0.00,,,0.00,WUHU216HW,2013-10-31 19:58:00,
2013-10-31 13:03:00,67.3,46.4,30.10,WNW,293,3.8,3.8,47,0.00,,,0.00,WUHU216HW,2013-10-31 20:03:00,
2013-10-31 13:08:00,67.7,46.1,30.10,WNW,293,0.7,3.8,46,0.00,,,0.00,WUHU216HW,2013-10-31 20:08:00,
2013-10-31 13:13:00,67.9,46.8,30.10,WNW,293,1.8,4.0,47,0.00,,,0.00,WUHU216HW,2013-10-31 20:13:00,
2013-10-31 13:18:00,68.0,47.0,30.10,South,180,1.3,4.0,47,0.00,,,0.00,WUHU216HW,2013-10-31 20:18:00,
2013-10-31 13:23:00,68.6,46.9,30.10,SSW,203,1.6,4.7,46,0.00,,,0.00,WUHU216HW,2013-10-31 20:23:00,
2013-10-31 13:28:00,69.1,48.0,30.09,NW,315,1.8,4.7,47,0.00,,,0.00,WUHU216HW,2013-10-31 20:28:00,
2013-10-31 13:33:00,69.5,47.7,30.09,NW,315,0.4,4.5,46,0.00,,,0.00,WUHU216HW,2013-10-31 20:33:00,
2013-10-31 13:38:00,69.7,47.9,30.09,South,180,1.1,4.5,46,0.00,,,0.00,WUHU216HW,2013-10-31 20:38:00,
2013-10-31 13:43:00,70.0,47.0,30.08,East,90,1.3,4.7,44,0.00,,,0.00,WUHU216HW,2013-10-31 20:43:00,
2013-10-31 13:48:00,70.2,47.2,30.08,West,270,2.2,4.9,44,0.00,,,0.00,WUHU216HW,2013-10-31 20:48:00,
2013-10-31 13:53:00,70.6,47.5,30.08,SW,225,0.4,4.9,44,0.00,,,0.00,WUHU216HW,2013-10-31 20:53:00,
2013-10-31 13:58:00,70.9,46.0,30.08,SSW,203,2.5,4.0,41,0.00,,,0.00,WUHU216HW,2013-10-31 20:58:00,
2013-10-31 14:03:00,71.1,46.8,30.08,West,270,2.7,3.4,42,0.00,,,0.00,WUHU216HW,2013-10-31 21:03:00,
2013-10-31 14:08:00,71.5,46.5,30.08,NNW,338,1.6,4.7,41,0.00,,,0.00,WUHU216HW,2013-10-31 21:08:00,
2013-10-31 14:13:00,71.6,46.1,30.07,North,0,1.3,4.7,40,0.00,,,0.00,WUHU216HW,2013-10-31 21:13:00,
2013-10-31 14:18:00,71.8,46.8,30.07,East,90,3.4,4.7,41,0.00,,,0.00,WUHU216HW,2013-10-31 21:18:00,
2013-10-31 14:23:00,72.0,45.6,30.07,South,180,2.5,4.3,39,0.00,,,0.00,WUHU216HW,2013-10-31 21:23:00,
2013-10-31 14:28:00,72.2,47.2,30.06,WSW,248,1.8,4.3,41,0.00,,,0.00,WUHU216HW,2013-10-31 21:28:00,
2013-10-31 14:33:00,72.4,46.0,30.06,West,270,0.7,4.7,39,0.00,,,0.00,WUHU216HW,2013-10-31 21:33:00,
2013-10-31 14:38:00,72.7,46.3,30.06,SSW,203,2.7,4.7,39,0.00,,,0.00,WUHU216HW,2013-10-31 21:38:00,
2013-10-31 14:43:00,72.7,45.5,30.06,WSW,248,0.7,4.9,38,0.00,,,0.00,WUHU216HW,2013-10-31 21:43:00,
2013-10-31 14:48:00,73.1,45.9,30.06,North,0,1.3,4.9,38,0.00,,,0.00,WUHU216HW,2013-10-31 21:48:00,
2013-10-31 14:53:00,73.3,45.3,30.06,WNW,293,3.8,6.3,37,0.00,,,0.00,WUHU216HW,2013-10-31 21:53:00,
2013-10-31 14:58:00,73.3,46.8,30.05,North,0,0.2,6.3,39,0.00,,,0.00,WUHU216HW,2013-10-31 21:58:00,
2013-10-31 15:03:00,73.3,45.3,30.05,WNW,293,4.9,4.9,37,0.00,,,0.00,WUHU216HW,2013-10-31 22:03:00,
2013-10-31 15:08:00,73.3,45.3,30.05,WSW,248,0.9,4.9,37,0.00,,,0.00,WUHU216HW,2013-10-31 22:08:00,
2013-10-31 15:13:00,73.6,46.4,30.05,North,0,0.2,4.5,38,0.00,,,0.00,WUHU216HW,2013-10-31 22:13:00,
2013-10-31 15:18:00,73.8,46.5,30.05,NW,315,1.6,3.6,38,0.00,,,0.00,WUHU216HW,2013-10-31 22:18:00,
2013-10-31 15:23:00,73.8,45.7,30.05,West,270,2.2,6.3,37,0.00,,,0.00,WUHU216HW,2013-10-31 22:23:00,
2013-10-31 15:28:00,73.8,45.0,30.05,West,270,2.5,6.3,36,0.00,,,0.00,WUHU216HW,2013-10-31 22:28:00,
2013-10-31 15:33:00,73.6,45.6,30.05,NNE,23,0.7,6.3,37,0.00,,,0.00,WUHU216HW,2013-10-31 22:33:00,
2013-10-31 15:38:00,73.6,45.6,30.05,West,270,1.6,5.6,37,0.00,,,0.00,WUHU216HW,2013-10-31 22:38:00,
2013-10-31 15:43:00,73.4,44.6,30.05,West,270,5.8,5.8,36,0.00,,,0.00,WUHU216HW,2013-10-31 22:43:00,
2013-10-31 15:48:00,73.4,45.5,30.05,NNW,338,1.3,5.8,37,0.00,,,0.00,WUHU216HW,2013-10-31 22:48:00,
2013-10-31 15:53:00,73.4,46.2,30.05,WSW,248,1.1,5.8,38,0.00,,,0.00,WUHU216HW,2013-10-31 22:53:00,
2013-10-31 15:58:00,73.4,45.5,30.04,WNW,293,7.2,7.2,37,0.00,,,0.00,WUHU216HW,2013-10-31 22:58:00,
2013-10-31 16:03:00,73.4,44.6,30.04,NNW,338,0.7,7.2,36,0.00,,,0.00,WUHU216HW,2013-10-31 23:03:00,
2013-10-31 16:08:00,73.1,45.1,30.04,WNW,293,5.8,7.2,37,0.00,,,0.00,WUHU216HW,2013-10-31 23:08:00,
2013-10-31 16:13:00,72.9,45.0,30.04,West,270,2.9,5.8,37,0.00,,,0.00,WUHU216HW,2013-10-31 23:13:00,
2013-10-31 16:18:00,72.7,46.3,30.04,NNE,23,1.1,5.8,39,0.00,,,0.00,WUHU216HW,2013-10-31 23:18:00,
2013-10-31 16:23:00,72.7,45.5,30.04,WSW,248,4.7,5.8,38,0.00,,,0.00,WUHU216HW,2013-10-31 23:23:00,
2013-10-31 16:28:00,72.7,45.5,30.04,WSW,248,1.6,6.3,38,0.00,,,0.00,WUHU216HW,2013-10-31 23:28:00,
2013-10-31 16:33:00,72.5,45.4,30.04,NW,315,0.4,6.3,38,0.00,,,0.00,WUHU216HW,2013-10-31 23:33:00,
2013-10-31 16:38:00,72.4,45.3,30.04,West,270,3.4,4.3,38,0.00,,,0.00,WUHU216HW,2013-10-31 23:38:00,
2013-10-31 16:43:00,72.4,45.3,30.04,NNW,338,1.8,5.8,38,0.00,,,0.00,WUHU216HW,2013-10-31 23:43:00,
2013-10-31 16:48:00,72.2,45.8,30.03,WNW,293,2.2,5.8,39,0.00,,,0.00,WUHU216HW,2013-10-31 23:48:00,
2013-10-31 16:53:00,71.8,45.6,30.03,WNW,293,4.7,4.7,39,0.00,,,0.00,WUHU216HW,2013-10-31 23:53:00,
2013-10-31 16:58:00,71.6,46.1,30.03,WNW,293,0.4,4.7,40,0.00,,,0.00,WUHU216HW,2013-10-31 23:58:00,
2013-10-31 17:03:00,71.5,45.2,30.03,WNW,293,0.4,4.7,39,0.00,,,0.00,WUHU216HW,2013-11-01 00:03:00,
2013-10-31 17:08:00,71.3,45.7,30.04,WNW,293,3.4,4.7,40,0.00,,,0.00,WUHU216HW,2013-11-01 00:08:00,
2013-10-31 17:13:00,70.9,45.5,30.04,WNW,293,0.0,4.3,40,0.00,,,0.00,WUHU216HW,2013-11-01 00:13:00,
2013-10-31 17:18:00,70.7,45.9,30.03,West,270,1.3,4.0,41,0.00,,,0.00,WUHU216HW,2013-11-01 00:18:00,
2013-10-31 17:23:00,70.4,44.9,30.03,West,270,2.2,4.0,40,0.00,,,0.00,WUHU216HW,2013-11-01 00:23:00,
2013-10-31 17:28:00,70.2,44.8,30.03,WNW,293,2.7,4.3,40,0.00,,,0.00,WUHU216HW,2013-11-01 00:28:00,
2013-10-31 17:33:00,69.8,44.5,30.03,West,270,1.6,5.1,40,0.00,,,0.00,WUHU216HW,2013-11-01 00:33:00,
2013-10-31 17:38:00,69.7,44.9,30.03,WSW,248,2.5,5.1,41,0.00,,,0.00,WUHU216HW,2013-11-01 00:38:00,
2013-10-31 17:43:00,69.5,44.7,30.03,West,270,2.7,4.7,41,0.00,,,0.00,WUHU216HW,2013-11-01 00:43:00,
2013-10-31 17:48:00,69.1,45.0,30.03,WNW,293,1.6,4.3,42,0.00,,,0.00,WUHU216HW,2013-11-01 00:48:00,
2013-10-31 17:53:00,68.6,44.6,30.03,WNW,293,0.9,4.0,42,0.00,,,0.00,WUHU216HW,2013-11-01 00:53:00,
2013-10-31 17:58:00,68.2,45.4,30.04,WSW,248,0.0,4.0,44,0.00,,,0.00,WUHU216HW,2013-11-01 00:58:00,
2013-10-31 18:03:00,67.7,44.3,30.03,WSW,248,0.0,2.5,43,0.00,,,0.00,WUHU216HW,2013-11-01 01:03:00,
2013-10-31 18:08:00,67.1,44.4,30.04,WNW,293,0.0,0.4,44,0.00,,,0.00,WUHU216HW,2013-11-01 01:08:00,
2013-10-31 18:13:00,66.6,44.6,30.04,WNW,293,0.0,0.2,45,0.00,,,0.00,WUHU216HW,2013-11-01 01:13:00,
2013-10-31 18:18:00,65.9,44.5,30.04,WNW,293,0.0,0.0,46,0.00,,,0.00,WUHU216HW,2013-11-01 01:18:00,
2013-10-31 18:23:00,65.5,44.6,30.05,ESE,113,0.4,1.8,47,0.00,,,0.00,WUHU216HW,2013-11-01 01:23:00,
2013-10-31 18:28:00,64.8,44.0,30.04,South,180,0.0,1.8,47,0.00,,,0.00,WUHU216HW,2013-11-01 01:28:00,
2013-10-31 18:33:00,64.3,44.0,30.05,South,180,0.0,0.2,48,0.00,,,0.00,WUHU216HW,2013-11-01 01:33:00,
2013-10-31 18:38:00,63.7,44.1,30.04,South,180,0.0,0.2,49,0.00,,,0.00,WUHU216HW,2013-11-01 01:38:00,
2013-10-31 18:43:00,63.4,44.4,30.05,WNW,293,0.0,1.1,50,0.00,,,0.00,WUHU216HW,2013-11-01 01:43:00,
2013-10-31 18:48:00,62.8,44.4,30.05,NW,315,0.2,1.1,51,0.00,,,0.00,WUHU216HW,2013-11-01 01:48:00,
2013-10-31 18:53:00,62.3,43.9,30.05,NE,45,0.0,0.2,51,0.00,,,0.00,WUHU216HW,2013-11-01 01:53:00,
2013-10-31 18:58:00,61.9,44.1,30.05,NE,45,0.7,0.7,52,0.00,,,0.00,WUHU216HW,2013-11-01 01:58:00,
2013-10-31 19:03:00,61.6,44.2,30.05,NE,45,0.0,0.7,53,0.00,,,0.00,WUHU216HW,2013-11-01 02:03:00,
2013-10-31 19:08:00,61.2,44.4,30.05,NE,45,0.0,0.7,54,0.00,,,0.00,WUHU216HW,2013-11-01 02:08:00,
2013-10-31 19:13:00,60.7,44.4,30.05,NE,45,0.0,0.0,55,0.00,,,0.00,WUHU216HW,2013-11-01 02:13:00,
2013-10-31 19:18:00,60.3,44.6,30.05,NE,45,0.0,0.0,56,0.00,,,0.00,WUHU216HW,2013-11-01 02:18:00,
2013-10-31 19:23:00,59.8,44.5,30.05,East,90,0.0,0.4,57,0.00,,,0.00,WUHU216HW,2013-11-01 02:23:00,
2013-10-31 19:28:00,59.4,44.1,30.05,East,90,0.4,0.4,57,0.00,,,0.00,WUHU216HW,2013-11-01 02:28:00,
2013-10-31 19:33:00,59.0,43.7,30.05,East,90,0.0,0.4,57,0.00,,,0.00,WUHU216HW,2013-11-01 02:33:00,
2013-10-31 19:38:00,58.7,43.9,30.05,East,90,0.0,0.4,58,0.00,,,0.00,WUHU216HW,2013-11-01 02:38:00,
2013-10-31 19:43:00,58.3,43.6,30.06,East,90,0.0,0.4,58,0.00,,,0.00,WUHU216HW,2013-11-01 02:43:00,
2013-10-31 19:48:00,58.0,43.3,30.06,East,90,0.7,0.7,58,0.00,,,0.00,WUHU216HW,2013-11-01 02:48:00,
2013-10-31 19:53:00,57.6,43.4,30.06,ENE,68,0.4,1.6,59,0.00,,,0.00,WUHU216HW,2013-11-01 02:53:00,
2013-10-31 19:58:00,57.2,43.1,30.06,ENE,68,0.0,1.6,59,0.00,,,0.00,WUHU216HW,2013-11-01 02:58:00,
2013-10-31 20:03:00,56.9,43.2,30.06,ENE,68,0.0,0.4,60,0.00,,,0.00,WUHU216HW,2013-11-01 03:03:00,
2013-10-31 20:08:00,56.5,43.2,30.06,ENE,68,0.0,0.0,61,0.00,,,0.00,WUHU216HW,2013-11-01 03:08:00,
2013-10-31 20:13:00,56.2,42.9,30.06,ENE,68,0.0,0.0,61,0.00,,,0.00,WUHU216HW,2013-11-01 03:13:00,
2013-10-31 20:18:00,56.0,43.1,30.06,ENE,68,0.0,0.0,62,0.00,,,0.00,WUHU216HW,2013-11-01 03:18:00,
2013-10-31 20:23:00,55.6,43.2,30.06,ENE,68,0.0,0.0,63,0.00,,,0.00,WUHU216HW,2013-11-01 03:23:00,
2013-10-31 20:28:00,55.3,42.9,30.06,ENE,68,0.7,0.7,63,0.00,,,0.00,WUHU216HW,2013-11-01 03:28:00,
2013-10-31 20:33:00,54.9,42.9,30.06,ENE,68,0.0,0.7,64,0.00,,,0.00,WUHU216HW,2013-11-01 03:33:00,
2013-10-31 20:38:00,54.7,42.8,30.06,ENE,68,0.0,0.7,64,0.00,,,0.00,WUHU216HW,2013-11-01 03:38:00,
2013-10-31 20:43:00,54.4,42.4,30.06,ENE,68,0.0,0.7,64,0.00,,,0.00,WUHU216HW,2013-11-01 03:43:00,
2013-10-31 20:48:00,54.0,42.0,30.06,ENE,68,0.4,0.4,64,0.00,,,0.00,WUHU216HW,2013-11-01 03:48:00,
2013-10-31 20:53:00,53.8,41.9,30.06,ENE,68,0.0,0.4,64,0.00,,,0.00,WUHU216HW,2013-11-01 03:53:00,
2013-10-31 20:58:00,53.6,42.1,30.06,ENE,68,0.2,0.4,65,0.00,,,0.00,WUHU216HW,2013-11-01 03:58:00,
2013-10-31 21:01:00,53.5,41.9,30.06,ENE,68,0.0,0.4,65,0.00,,,0.00,WUHU216HW,2013-11-01 04:01:00,
2013-10-31 21:02:00,53.3,42.2,30.06,ENE,68,0.0,0.4,66,0.00,,,0.00,WUHU216HW,2013-11-01 04:02:00,
2013-10-31 21:07:00,53.1,42.0,30.07,ENE,68,0.7,0.7,66,0.00,,,0.00,WUHU216HW,2013-11-01 04:07:00,
2013-10-31 21:12:00,52.9,42.2,30.06,ENE,68,0.0,0.9,67,0.00,,,0.00,WUHU216HW,2013-11-01 04:12:00,
2013-10-31 21:17:00,52.6,42.0,30.06,East,90,0.0,0.9,67,0.00,,,0.00,WUHU216HW,2013-11-01 04:17:00,
2013-10-31 21:22:00,52.2,41.9,30.07,East,90,0.4,0.7,68,0.00,,,0.00,WUHU216HW,2013-11-01 04:22:00,
2013-10-31 21:27:00,52.0,41.9,30.07,NE,45,0.4,0.9,68,0.00,,,0.00,WUHU216HW,2013-11-01 04:27:00,
2013-10-31 21:32:00,51.7,41.5,30.07,NE,45,0.7,1.1,68,0.00,,,0.00,WUHU216HW,2013-11-01 04:32:00,
2013-10-31 21:37:00,51.7,41.5,30.07,ENE,68,0.0,1.1,68,0.00,,,0.00,WUHU216HW,2013-11-01 04:37:00,
2013-10-31 21:42:00,51.5,41.3,30.07,ENE,68,0.0,0.9,68,0.00,,,0.00,WUHU216HW,2013-11-01 04:42:00,
2013-10-31 21:47:00,51.1,41.0,30.07,ENE,68,0.2,0.4,68,0.00,,,0.00,WUHU216HW,2013-11-01 04:47:00,
2013-10-31 21:52:00,50.9,40.8,30.08,ENE,68,0.0,0.4,68,0.00,,,0.00,WUHU216HW,2013-11-01 04:52:00,
2013-10-31 21:57:00,50.8,40.6,30.08,ENE,68,0.0,0.4,68,0.00,,,0.00,WUHU216HW,2013-11-01 04:57:00,
2013-10-31 22:02:00,50.6,40.4,30.08,ENE,68,0.0,0.4,68,0.00,,,0.00,WUHU216HW,2013-11-01 05:02:00,
2013-10-31 22:07:00,50.4,40.2,30.08,ENE,68,0.0,0.0,68,0.00,,,0.00,WUHU216HW,2013-11-01 05:07:00,
2013-10-31 22:12:00,50.2,40.5,30.08,ENE,68,0.0,0.0,69,0.00,,,0.00,WUHU216HW,2013-11-01 05:12:00,
2013-10-31 22:17:00,50.0,40.3,30.08,ENE,68,0.0,0.0,69,0.00,,,0.00,WUHU216HW,2013-11-01 05:17:00,
2013-10-31 22:22:00,49.7,40.3,30.08,ENE,68,0.0,0.2,70,0.00,,,0.00,WUHU216HW,2013-11-01 05:22:00,
2013-10-31 22:27:00,49.5,40.1,30.08,ENE,68,0.0,0.4,70,0.00,,,0.00,WUHU216HW,2013-11-01 05:27:00,
2013-10-31 22:32:00,49.3,40.0,30.08,ENE,68,0.0,0.4,70,0.00,,,0.00,WUHU216HW,2013-11-01 05:32:00,
2013-10-31 22:37:00,49.1,40.2,30.08,ENE,68,0.0,0.0,71,0.00,,,0.00,WUHU216HW,2013-11-01 05:37:00,
2013-10-31 22:42:00,49.0,40.0,30.08,ENE,68,0.0,0.0,71,0.00,,,0.00,WUHU216HW,2013-11-01 05:42:00,
2013-10-31 22:45:00,49.0,40.0,30.08,ENE,68,0.2,0.4,71,0.00,,,0.00,WUHU216HW,2013-11-01 05:45:00,
2013-10-31 22:50:00,48.8,39.8,30.08,ENE,68,0.0,0.4,71,0.00,,,0.00,WUHU216HW,2013-11-01 05:50:00,
2013-10-31 22:55:00,48.6,40.0,30.08,ENE,68,0.0,0.4,72,0.00,,,0.00,WUHU216HW,2013-11-01 05:55:00,
2013-10-31 23:00:00,48.6,40.0,30.08,ENE,68,0.0,0.4,72,0.00,,,0.00,WUHU216HW,2013-11-01 06:00:00,
2013-10-31 23:05:00,48.2,39.6,30.09,ENE,68,0.4,0.4,72,0.00,,,0.00,WUHU216HW,2013-11-01 06:05:00,
2013-10-31 23:10:00,48.1,39.4,30.09,ENE,68,0.0,0.4,72,0.00,,,0.00,WUHU216HW,2013-11-01 06:10:00,
2013-10-31 23:15:00,47.9,39.2,30.09,ENE,68,0.0,0.4,72,0.00,,,0.00,WUHU216HW,2013-11-01 06:15:00,
2013-10-31 23:20:00,47.9,39.2,30.09,ENE,68,0.0,0.2,72,0.00,,,0.00,WUHU216HW,2013-11-01 06:20:00,
2013-10-31 23:25:00,47.7,39.4,30.09,ENE,68,0.0,0.2,73,0.00,,,0.00,WUHU216HW,2013-11-01 06:25:00,
2013-10-31 23:30:00,47.5,39.2,30.09,ENE,68,0.0,0.2,73,0.00,,,0.00,WUHU216HW,2013-11-01 06:30:00,
2013-10-31 23:35:00,47.3,39.4,30.09,ENE,68,0.7,0.7,74,0.00,,,0.00,WUHU216HW,2013-11-01 06:35:00,
2013-10-31 23:40:00,47.2,39.2,30.09,ENE,68,0.0,0.7,74,0.00,,,0.00,WUHU216HW,2013-11-01 06:40:00,
2013-10-31 23:45:00,47.2,39.2,30.09,ENE,68,0.0,0.7,74,0.00,,,0.00,WUHU216HW,2013-11-01 06:45:00,
2013-10-31 23:50:00,47.0,39.2,30.09,ENE,68,0.2,0.4,74,0.00,,,0.00,WUHU216HW,2013-11-01 06:50:00,
2013-10-31 23:55:00,47.0,39.4,30.09,ENE,68,0.0,0.4,75,0.00,,,0.00,WUHU216HW,2013-11-01 06:55:00,